Showing default

QIANFAN-29, 61562

Orbit data source: Space-Track

QIANFAN-29, 61562 is a Chinese payload satellite in LEO that was launched on Tue, 15 Oct 2024 UTC via a CHANG ZHENG 6A launch vehicle from the Taiyaun Space Center, China (TSC). Payload-class satellites include a variety of spacecraft equipped with specific instruments for various scientific and technological missions. These include communications satellites like Starlink; space stations such as the ISS; scientific satellites like the Hubble; Earth observation satellites from companies like Planet Labs, Umbra, and HawkEye 360; GPS; miniature CubeSats for education and research; and military/defense satellites.

Loading next visibility...
Identifier
61562, 2024-185L
Orbit
LEO
Country
Flag of CNCN / PRC
Related business
Manufacturer
GESIH/SECM
Mission
Operational Commercial Communications
Bus & Motor
QIANFAN, Unknown motor
Mass
267 kg wet, ~267 kg dry
Launch date (UTC)
2024-10-15 (2 years ago)
Launch vehicle
CHANG ZHENG 6A
Launch site
Taiyaun Space Center, China (TSC)
Object type
Payload
Rocket body
Debris
Shape & HBR
Box + 1 Pan, 5.0 m
Radar Cross Section
13.200 m², Large (>1 m²)

Expand to show TLE details & history
Last TLE update: 11 hours ago

TLE from 11 hours ago
0 QIANFAN-29
1 61562U 24185L   26171.40844427  .00000081  00000-0  10628-3 0  9999
2 61562  88.9801  61.7041 0008451 212.9225 147.1401 13.51073968 93403
Epoch: 2026-06-20T09:48Z
TLE epoch observation values (Epoch: 2026-06-20T09:48:09.584Z)
Latitude
-0.00003°
Longitude
6.04067°
Altitude
1,076.552 km
Speed
7.311 km/s
True Right ascension
04h 06m 48s
True Declination
0° 00' 00"
Sunlit
Object was in daylight at epoch
Visualization orbit readout
Latitude
Unknown
Longitude
Unknown
Altitude
Unknown
Speed
Unknown
Apparent Right ascension
Unknown
Apparent Declination
Unknown
Sunlit
N/A
Visualization observer readout
Local Sidereal Time
07:24:32
Azimuth
Unknown
Elevation
Unknown
Doppler factor
Unknown
Orbital elements
Apogee altitude
1,071.651 km
Perigee altitude
1,059.07 km
Semi-major axis
7,443.498 km
Eccentricity
0.00085
Inclination
88.9801°
RAAN
61.7041°
Arg. of periapsis
212.9225°
True anomaly
147.1926°
Mean anomaly
147.1401°
Eccentric anomaly
147.16635°
Mean motion
3.3797 °/min
Orbital period
106.52 mins
BSTAR
0.00010628
Loading maneuver chart data...
Computing Atmospheric mass density...
Loading historical data...
Loading historical data...
Loading historical data...
Loading historical data...
Loading historical data...
Loading historical data...
Loading historical data...

Documentation

Showing up to 5 results
|